STARLINK-32855, 62813

Orbit data source: Space-Track

STARLINK-32855, 62813 is a payload satellite owned by SpaceX/Seattle (US) in LEO that was launched on Fri, 24 Jan 2025 UTC via an FALCON 9 launch vehicle from the Air Force Western Test Range (AFWTR). Payloads include a variety of satellites, spacecraft, and rockets equipped with specific instruments for various scientific and technological missions. These include communications satellites like Starlink; space stations such as the ISS; scientific satellites like the Hubble; Earth observation satellites from companies like Planet Labs, Umbra, and HawkEye 360; GPS; miniature CubeSats for education and research; and military/defense satellites.

Loading next visibility...
STARLINK-32855 details
Identifier
62813, 2025-018H
Orbit
LEO
Last TLE update9 hours ago
Origin
Flag of USSpaceX/Seattle (US)
ManufacturerSpaceX/Seattle
MissionOperational spacecraft
Bus & MotorSTARLINK V2M, Unknown motor
Mass730 kg wet, ~700 kg dry
Launch date (UTC)
2025-01-24 (3 weeks ago)
Launch vehicle
FALCON 9
Launch site
Air Force Western Test Range (AFWTR)
Object type
Payload
Rocket body
Debris
Shape & HBRUnknown
Radar Cross SectionLarge (>1 m²)

Expand to show TLE details & history

TLE from 9 hours ago
0 STARLINK-32855
1 62813U 25018H   25047.16668981 -.01596424  00000-0 -25335-1 0  9991
2 62813  53.1589 312.5233 0000707  79.1057 272.1013 15.55652669  4791
Epoch: 2025-02-16T04:00Z
Definitive object data (Epoch: 2025-02-16T04:00:01.999Z)
Latitude-7.15703°
Longitude100.74335°
Altitude402.354 km
Speed7.67 km/s
True Right ascension20h 28m 37s
True Declination-7° 06' 45"
Sunlit
Object was in daylight at TLE epoch
Visualization TLE readout
Latitude-53.04229°
Longitude6.30888°
Altitude423.017 km
Speed7.657 km/s
Apparent Right ascension07h 17m 48s
Apparent Declination-78° 38' 36"
Sunlit
Object is in daylight
Visualization observer readout
Local Sidereal Time15:39:49
Azimuth193.291° SSW
Elevation-45.792°
Doppler factor1
Orbital elements
Apogee altitude400.995 km
Perigee altitude400.036 km
Semi-major axis6,778.652 km
Eccentricity0.0000707
Inclination53.1589°
RAAN312.5233°
Arg. of periapsis79.1057°
True anomaly272.0932°
Mean anomaly272.1013°
Eccentric anomaly272.09725°
Mean motion3.88891 °/min
BSTAR-0.025335
Orbital period92.57 mins
Loading maneuver chart data...
Loading historical data...
Loading historical data...
Loading historical data...
Loading historical data...
Loading historical data...
Loading historical data...
Loading historical data...

STARLINK-32855 Visibility forecast

Observer location: undefined°, undefined

Span
Click to sort rows by Start time (UTC) header in descending order
Start Az.
Max El. time (UTC)
Max El. Az.
Max El.
End time (UTC)
End Az.
4 mins2025-02-16 19:38:13.177Z184.989° SSW2025-02-16 19:40:13.177Z132.153° SE25.755°2025-02-16 19:42:13.177Z79.677° E
4 mins2025-02-16 21:15:13.177Z287.196° WNW2025-02-16 21:16:13.177Z315.586° NNW25.028°2025-02-16 21:19:13.177Z29.192° NE
4 mins2025-02-17 02:07:13.177Z343.583° N2025-02-17 02:09:13.177Z37.994° NE23.49°2025-02-17 02:11:13.177Z83.269° E
4 mins2025-02-17 03:44:13.177Z270.323° WNW2025-02-17 03:45:13.177Z237.382° WSW28.627°2025-02-17 03:48:13.177Z162.093° S
|